Location: Maccacari
(45.1333°N, 11.1333°E)
Time: 13:38:05
(UTC+00:00)

SR - Pass Details

Date: 25 June 2021
Orbit: 577 x 878 km, 66.7° (Epoch: 24 July)

Event Time Altitude Azimuth Distance (km) Brightness Sun altitude
Rises 21:00:16 0° 333° (NNW) 3,341 ? -14.6°
Reaches altitude 10° 21:03:46 10° 354° (N) 2,346 ? -15.0°
Maximum altitude 21:07:03 16° 32° (NNE) 1,886 ? -15.3°
Drops below altitude 10° 21:10:12 10° 71° (ENE) 2,214 ? -15.5°
Enters shadow 21:12:32 - 88° (E) 2,820 ? -15.8°
